Forside
METAR-TAF:

METAR-TAF

Lufthavne :

Richard B. Helgeson Airport

Two Harbors, Minnesota, USA

Breddekreds: 47-03N, længdekreds: 091-45W, højde: 328 m

Aktuelle vejr

Denne rapport blev lavet for 39 minutter siden, kl. 23:55 UTC
Vind 3 kt fra nordvest
Temperatur 14°C
Fugtighed 51%
Tryk 1011 hPa
Sigt: 16.1 km
Brudte skyer i en højde af 8000 ft

METAR: KTWM 212355Z AUTO 31003KT 10SM BKN080 14/04 A2986 RMK AO2 PWINO

Tid: 19:34 (00:34 UTC)


TAF: fraværende

Vejrobservationer og prognoser fra mere end 4000 lufthavne (METAR og TAF).

De gule og røde prikker repræsenterer de meteorologiske stationer.

Flyt musen over at se navnet på stationen.

Så klik over at se vejr observationer og prognoser.

At skifte det kort: Klik på de grønne knapper med et sort kors for at zoome ind; på den grønne knap med en bindestreg for at zoome ud; eller på de grønne pile for tilstødende kort.


METAR-TAF: